Location: Beuerbach
(48.1459°N, 10.9174°E)
Time: 03:24:10
(UTC+00:00)

Cosmos 468 Rocket - Pass Details

Date: 23 May 2024
Orbit: 741 x 777 km, 74.0° (Epoch: 13 June)

Event Time Altitude Azimuth Distance (km) Brightness Sun altitude
Rises 00:40:27 0° 332° (NNW) 3,269 7.9 -18.5°
Reaches altitude 10° 00:42:56 10° 327° (NNW) 2,334 7.0 -18.3°
Maximum altitude 00:47:58 46° 255° (WSW) 1,034 4.4 -18.0°
Enters shadow 00:49:50 32° 206° (SSW) 1,290 4.6 -17.9°
